Showing default

LES 5, 2866

Orbit data source: Space-Track

LES 5, 2866 is a payload satellite owned by SAMSO (US) in GEO that was launched on Sat, 01 Jul 1967 UTC via a TITAN IIIC launch vehicle from the Air Force Eastern Test Range (AFETR). Payload-class satellites include a variety of spacecraft equipped with specific instruments for various scientific and technological missions. These include communications satellites like Starlink; space stations such as the ISS; scientific satellites like the Hubble; Earth observation satellites from companies like Planet Labs, Umbra, and HawkEye 360; GPS; miniature CubeSats for education and research; and military/defense satellites.

Loading next visibility...
Identifier
2866, 1967-066E
Orbit
GEO
Country
Flag of USUS
Related business
Manufacturer
MIT-LL
Mission
Partially operational spacecraft
Bus & Motor
LES, Unknown motor
Mass
102 kg wet, 102 kg dry
Launch date (UTC)
1967-07-01 (58 years ago)
Launch vehicle
TITAN IIIC
Launch site
Air Force Eastern Test Range (AFETR)
Object type
Payload
Rocket body
Debris
Shape & HBR
Unknown
Radar Cross Section
Large (>1 m²)

Expand to show TLE details & history
Last TLE update: 14 hours ago

TLE from 14 hours ago
0 LES 5
1 02866U 67066E   25341.74580979 -.00000046  00000-0  00000-0 0  9992
2 02866   2.1822 102.6582 0056237 199.9597 219.0380  1.09425038128944
Epoch: 2025-12-07T17:53Z
TLE epoch observation values (Epoch: 2025-12-07T17:53:57.965Z)
Latitude
1.86536°
Longitude
175.98194°
Altitude
33,574.086 km
Speed
3.152 km/s
True Right ascension
10h 44m 54s
True Declination
1° 51' 48"
Sunlit
Object was in daylight at epoch
Visualization orbit readout
Latitude
Unknown
Longitude
Unknown
Altitude
Unknown
Speed
Unknown
Apparent Right ascension
Unknown
Apparent Declination
Unknown
Sunlit
N/A
Visualization observer readout
Local Sidereal Time
05:49:20
Azimuth
Unknown
Elevation
Unknown
Doppler factor
Unknown
Orbital elements
Apogee altitude
33,626.027 km
Perigee altitude
33,178.6 km
Semi-major axis
39,780.451 km
Eccentricity
0.00562
Inclination
2.1822°
RAAN
102.6582°
Arg. of periapsis
199.9597°
True anomaly
218.63432°
Mean anomaly
219.038°
Eccentric anomaly
218.83594°
Mean motion
0.27355 °/min
Orbital period
1,316.02 mins
BSTAR
0
Loading maneuver chart data...
Computing Atmospheric mass density...
Loading historical data...
Loading historical data...
Loading historical data...
Loading historical data...
Loading historical data...
Loading historical data...
Loading historical data...

Documentation

Showing up to 5 results
|